This demonstration page uses our WeatherBlox Daily Observations layout. Learn more.

41.55636, -103.73856

Hourly Observations for February 15, 2019

Temp ( °F °C ) Dew Point ( °F °C ) Humidity (%) Winds ( mph kmh ) Pressure ( in mb ) Visibility ( mi km ) Precip ( " mm )
12:58 am 00:58 Mostly Cloudy 26 -3.4 17 -8.5 68 68 S 5 7 29.92 1013 10 16.0934 N/A
1:58 am 01:58 Partly Cloudy 24 -4.3 17 -8.3 74 74 SSE 8 13 29.85 1011 10 16.0934 N/A
2:58 am 02:58 Mostly Cloudy 24 -4.5 15 -9.2 70 70 S 10 17 29.94 1014 10 16.0934 N/A
3:58 am 03:58 Mostly Cloudy 24 -4.6 15 -9.7 68 68 S 16 26 29.98 1015 10 16.0934 N/A
4:58 am 04:58 Partly Cloudy 22 -5.3 14 -9.9 70 70 S 15 24 29.98 1015 10 16.0934 N/A
5:58 am 05:58 Mostly Cloudy 22 -5.4 14 -10.1 70 70 S 18 30 29.96 1015 10 16.0934 N/A
6:58 am 06:58 Cloudy 22 -5.7 13 -10.7 68 68 S 21 33 29.93 1013 10 16.0934 N/A
7:58 am 07:58 Cloudy 21 -6.3 12 -10.9 70 70 S 25 41 29.92 1013 10 16.0934 N/A
8:58 am 08:58 Windy with Snow Likely 19 -7.4 15 -9.5 85 85 SSE 21 33 29.91 1013 1 1.60934 N/A
9:58 am 09:58 Cloudy with Snow 18 -8 14 -9.8 87 87 S 25 41 29.92 1013 5 8.0467 N/A
10:58 am 10:58 Mostly Cloudy with Scattered Snow Showers 18 -7.9 14 -9.8 86 86 S 23 37 29.88 1012 1 1.60934 N/A
11:58 am 11:58 Mostly Cloudy with Scattered Snow Showers 17 -8.2 14 -10 87 87 S 23 37 29.79 1009 6 9.65604 N/A
12:58 pm 12:58 Mostly Cloudy 15 -9.2 13 -10.8 88 88 S 20 31 29.8 1009 10 16.0934 N/A
1:58 pm 13:58 Windy with Snow Showers Likely 15 -9.6 12 -10.9 90 90 S 20 31 29.82 1010 4 6.43736 N/A
2:58 pm 14:58 Mostly Cloudy with Scattered Snow Showers 15 -9.3 13 -10.7 90 90 S 23 37 29.82 1010 2.5 4.02335 N/A
3:58 pm 15:58 Sunny 17 -8.1 13 -10.4 84 84 SSW 24 39 29.82 1010 8 12.87472 N/A
4:58 pm 16:58 Mostly Sunny 22 -5.4 17 -8.6 78 78 SSW 23 37 29.8 1009 10 16.0934 N/A
5:58 pm 17:58 Sunny 29 -1.4 21 -6 71 71 SSW 14 22 29.78 1009 10 16.0934 N/A
6:58 pm 18:58 Sunny 45 7.4 24 -4.2 44 44 WNW 32 52 29.71 1006 10 16.0934 N/A
7:58 pm 19:58 Sunny 47 8.4 21 -5.9 36 36 NW 39 63 29.71 1006 10 16.0934 N/A
8:58 pm 20:58 Sunny 48 8.9 21 -5.9 35 35 NNW 15 24 29.72 1006 10 16.0934 N/A
9:58 pm 21:58 Sunny 50 9.9 20 -6.5 31 31 WNW 18 30 29.74 1007 10 16.0934 N/A
10:58 pm 22:58 Sunny 46 7.7 26 -3.3 46 46 E 10 17 29.78 1008 10 16.0934 N/A

Powered by AerisWeather